Location: Pianadetto
(44.4000°N, 10.1000°E)
Time: 06:44:32
(UTC+00:00)

ADEOS II - Visible Passes

Search period start: 06 October 2022 00:00
Search period end: 16 October 2022 00:00
Orbit: 798 x 801 km, 98.6° (Epoch: 05 October)

Date Brightness Start Highest point End Pass type
(mag) Time Alt. Az. Time Alt. Az. Time Alt. Az.
06 Oct 4.1 02:13:42 10° N 02:15:16 19° N 02:15:16 19° N visible
07 Oct 4.3 01:46:44 10° N 01:48:04 18° N 01:48:04 18° N visible
08 Oct 4.7 01:19:58 10° NNE 01:20:53 15° NNE 01:20:53 15° NNE visible
08 Oct 4.2 03:00:50 10° NNW 03:01:48 13° NNW 03:01:48 13° NNW visible
09 Oct 5.0 00:53:27 10° NNE 00:53:40 11° NNE 00:53:40 11° NNE visible
09 Oct 4.2 02:33:23 10° N 02:34:35 16° NNW 02:34:35 16° NNW visible
10 Oct 4.3 02:06:16 10° N 02:07:23 16° N 02:07:23 16° N visible
11 Oct 4.6 01:39:22 10° NNE 01:40:11 15° NNE 01:40:11 15° NNE visible
12 Oct 4.9 01:12:39 10° NNE 01:12:59 12° NNE 01:12:59 12° NNE visible
12 Oct 4.3 02:53:14 10° NNW 02:53:54 13° NNW 02:53:54 13° NNW visible
13 Oct 4.4 02:25:54 10° N 02:26:41 14° N 02:26:41 14° N visible
14 Oct 4.6 01:58:50 10° N 01:59:29 14° N 01:59:29 14° N visible
15 Oct 4.8 01:31:58 10° NNE 01:32:17 12° NNE 01:32:17 12° NNE visible
